Flag for U.S.A. Weather past 2 weeks in Cocoa Beach, Florida, U.S.A.

Now
67 °F

Sunny.


Feels Like: 67 °F
Forecast: 56 / 66 °F
Wind: 13 mph from Northeast

Location: Cocoa / Patrick Air Force Base

Current Time: Jan 31, 2015 at 11:22:28 AM

Latest Report: Jan 31, 2015 at 10:58 AM


Visibility: 10 mi

Pressure: 30.29 "Hg

Humidity: 56%

Dew point: 51 °F

Location of Cocoa BeachLocation

Historic Weather in Cocoa Beach — Graph

°F

Cocoa Beach temperature yesterday

Maximum temperature yesterday: 72 °F (at 12:58 PM)
Minimum temperature yesterday: 53 °F (at 3:58 AM)
Average temperature yesterday: 61 °F

Past Weeks' High & Low Weather Summary

 TemperatureHumidityPressure
High74 °F (Jan 22, 12:58 PM)100% (Jan 21, 4:58 AM)30.33 "Hg (Jan 21, 4:58 AM)
Low47 °F (Jan 27, 6:58 AM)25% (Jan 25, 12:58 PM)29.82 "Hg (Jan 24, 8:03 AM)
Average61 °F75%30.10 "Hg
* Reported Jan 16 9:58 AM — Jan 31 9:58 AM, Cocoa Beach, Weather by CustomWeather, © 2014

Note: Actual official high and low records may vary slightly from our data, if they occured in-between our weather recording intervals... More about our weather records

Advertising

Cocoa Beach weather history for previous 24 hours

 ConditionsComfort  
Time TempWeatherWind HumidityBarometerVisibility
9:58 AM
Jan 31
67 °FPassing clouds.13 mph58%30.28 "Hg10 mi
8:58 AM64 °FPassing clouds.12 mph66%30.26 "Hg10 mi
7:58 AM56 °FPassing clouds.7 mph83%30.25 "Hg10 mi
6:58 AM55 °FClear.8 mph82%30.24 "Hg10 mi
5:58 AM55 °FClear.12 mph80%30.22 "Hg10 mi
4:58 AM55 °FClear.13 mph79%30.21 "Hg10 mi
3:58 AM56 °FClear.10 mph78%30.22 "Hg10 mi
2:58 AM56 °FClear.7 mph75%30.22 "Hg10 mi
1:58 AM57 °FClear.9 mph73%30.23 "Hg10 mi
12:58 AM58 °FClear.13 mph72%30.23 "Hg10 mi
11:58 PM
Jan 30
59 °FClear.9 mph73%30.23 "Hg10 mi
10:58 PM60 °FClear.10 mph66%30.23 "Hg10 mi
9:58 PM60 °FClear.10 mph72%30.21 "Hg10 mi
8:58 PM61 °FClear.10 mph70%30.20 "Hg10 mi
7:58 PM61 °FClear.9 mph73%30.19 "Hg10 mi
6:58 PM62 °FClear.10 mph83%30.17 "Hg10 mi
5:58 PM63 °FSunny.15 mph82%30.16 "Hg10 mi
4:58 PM69 °FScattered clouds.9 mph66%30.14 "Hg10 mi
3:58 PM70 °FSunny.9 mph67%30.13 "Hg10 mi
2:58 PM70 °FScattered clouds.13 mph66%30.12 "Hg10 mi
1:58 PM71 °FPassing clouds.14 mph62%30.13 "Hg10 mi
12:58 PM72 °FPassing clouds.13 mph57%30.15 "Hg10 mi
11:58 AM71 °FSunny.12 mph49%30.18 "Hg10 mi
Weather by CustomWeather, © 2014

See weather overviewHow to use our weather pages